Regional Weather Roundup
Issued by NWS New Orleans/Baton Rouge, LA

Current Version | Previous Version | Text Only | Print | Product List | Glossary On
Versions: 1 2 3 4 5 6 7 8 9 10 11 12 13 14 15 16 17 18 19 20 21 22 23 24 25 26 27
000
ASUS44 KLIX 051613
RWRLIX
NEW ORLEANS REGIONAL WEATHER ROUNDUP
NATIONAL WEATHER SERVICE NEW ORLEANS LA
1000 AM CST MON DEC 05 2016

NOTE: "FAIR" INDICATES FEW OR NO CLOUDS BELOW 12,000 FEET WITH NO
      SIGNIFICANT WEATHER AND/OR OBSTRUCTIONS TO VISIBILITY.
      SKY/WX - SKY CONDITION AND SIGNIFICANT WEATHER.
      TMP - AIR TEMPERATURE.     DP    - DEWPOINT TEMPERATURE.
      RH  - RELATIVE HUMIDITY.   PRES  - PRESSURE.
      HI  - HEAT INDEX.          WCI   - WIND CHILL INDEX.

*  THESE STATIONS ARE NOT NWS OR FAA STATIONS AND ARE NOT UNDER
   NWS QUALITY CONTROL.

LAZ038-040-048-061>063-065>067-069-051700-
SOUTHEAST LOUISIANA

CITY           SKY/WX    TMP DP  RH WIND       PRES   REMARKS
N.O. AUDUBON   NOT AVBL
N.O. INTL ARPT TSTM      60  60 100 NE12G17   29.82F FOG
N.O. LAKEFRONT LGT RAIN  61  61 100 NE16      29.83F VSB 1/2
N.O. DOWNTOWN* TSTM      61  60  97 VRB5      29.83F FOG
RESERVE*       NOT AVBL
SLIDELL        FOG       59  59 100 NE8       29.85F VSB 1
BATON ROUGE    RAIN      54  53  97 N12       29.86F FOG
BOOTHVILLE     CLOUDY    64  64 100 NE9       29.84F FOG
BELLE CHASSE   TSTM      62  61  96 NE13      29.81F FOG
BOGALUSA*      NOT AVBL
GALLIANO*      CLOUDY    64  62  91 NE8       29.81F FOG
NEW ROADS*     RAIN      52  51  97 E8        29.86F
GONZALES*      RAIN      56  56 100 N7        29.83F
HAMMOND*       LGT RAIN  55  54  94 N9        29.87F
HOUMA*         LGT RAIN  61  61 100 N5        29.82R
PORT FOURCHON* CLOUDY    66  66 100 E10       29.80F FOG

$$

MSZ070-080>082-051700-
SOUTHERN MISSISSIPPI

CITY           SKY/WX    TMP DP  RH WIND       PRES   REMARKS
MCCOMB         LGT RAIN  52  50  93 VRB3      29.92S FOG
GULFPORT       CLOUDY    61  60  97 NE6       29.87F FOG
BILOXI         NOT AVBL
PASCAGOULA     CLOUDY    61  58  90 NE8       29.89F FOG
STENNIS ARPT*  CLOUDY    59  55  88 VRB6      29.87F FOG

$$

COASTAL OBSERVATIONS
LAKE AND NEARSHORE STATIONS

STATION/POSITION TIME  TEMP    WIND        PRES    WAVE
                       AIR SEA DIR/SP/G            HT/PER
                 (UTC) (F)     (DEG/KT/KT) (MB)    (FT/S)
PASCAGOULA       1548   62      30/  7/  9 1011.5
WAVELAND YACHT   1536   59 61   40/  8/ 10 1011.8
GRAND ISLE       1548   66 68   70/ 12/ 18 1009.2
SOUTHWEST PASS   1548          130/ 10/ 12   N/A
NEW CANAL        1548   60 62   60/ 13/ 16 1009.1
SHELL BEACH      1548   62 64   50/ 14/ 16 1010.3

OFFSHORE STATIONS

STATION/POSITION TIME  TEMP    WIND        PRES    WAVE
                       AIR SEA DIR/SP/G            HT/PER
                 (UTC) (F)     (DEG/KT/KT) (MB)    (FT/S)
64 S DAUPHIN ISL 1550   76 75  110/ 12/ 14 1010.0    5/ 7

$$





USA.gov is the U.S. government's official web portal to all federal, state and local government web resources and services.